Simultaneous Nadir Overpasses (SNOs) Predictions

Prediction of SNOs between NPP and TERRA Satellite Orbit:

Table of predicted SNOs for the next 14.0 days since TLE Epoch: 5/29/2021
Index Date (NPP) Time (NPP) Lat,Lon (NPP) SZA (NPP ) Date (TERRA) Time (TERRA) Lat,Lon (TERRA) SZA (TERRA ) Distance(km) Time Diff (sec)
1 05/29/2021 17:31:15 -68.63, 95.38 133.21 05/29/2021 17:32:06 -68.60, 95.39 133.25 3.09 51
2 05/29/2021 18:21:59 68.51, -97.15 46.66 05/29/2021 18:21:33 68.49, -97.10 46.64 2.95 26
3 05/29/2021 19:12:25 -67.56, 71.36 134.31 05/29/2021 19:11:17 -67.60, 69.49 134.25 79.40 68
4 06/01/2021 08:57:43 69.41, 42.75 47.21 06/01/2021 08:58:51 69.30, 44.53 47.08 70.88 68
5 06/01/2021 09:48:11 -68.57,-148.78 133.65 06/01/2021 09:48:32 -68.58,-148.75 133.64 2.05 21
6 06/01/2021 10:38:54 68.40, 18.76 46.17 06/01/2021 10:38:00 68.41, 18.69 46.19 3.26 54
7 06/04/2021 01:14:26 68.66, 159.55 46.12 06/04/2021 01:15:28 68.66, 159.60 46.11 2.14 62
8 06/04/2021 02:05:07 -68.51, -32.93 134.04 06/04/2021 02:04:59 -68.50, -32.96 134.05 1.24 8
9 06/04/2021 02:55:43 67.96, 135.07 45.40 06/04/2021 02:54:32 68.05, 134.14 45.50 39.92 71
10 06/06/2021 17:31:21 68.61, -84.62 45.78 06/06/2021 17:31:53 68.63, -84.55 45.80 3.48 32
11 06/06/2021 18:22:02 -68.46, 82.90 134.39 06/06/2021 18:21:24 -68.48, 82.89 134.37 2.31 38
12 06/09/2021 08:57:38 -68.93,-136.60 134.13 06/09/2021 08:58:50 -68.83,-136.07 134.24 24.13 72
13 06/09/2021 09:48:17 68.56, 31.22 45.49 06/09/2021 09:48:20 68.54, 31.22 45.47 2.48 3
14 06/09/2021 10:38:59 -68.46,-161.33 134.62 06/09/2021 10:37:50 -68.44,-161.27 134.64 3.14 69
15 06/12/2021 01:14:29 -68.62, -20.40 134.64 06/12/2021 01:15:19 -68.62, -20.44 134.64 1.56 50
16 06/12/2021 02:05:13 68.51, 147.04 45.25 06/12/2021 02:04:46 68.49, 147.05 45.23 2.04 27
17 06/12/2021 02:55:39 -67.55, -44.42 135.73 06/12/2021 02:54:31 -67.56, -46.40 135.69 84.10 68



Historial Predications of SNOs between NPP and TERRA
